Weather in Unitsa

Russia / Republic of Karelia     62°35′48″N   34°27′42″E
temp.,
°C
wind,
m/s
gust,
m/s
humid.,
%
clouds,
%
prec.,
mm/h
press.,
hPa
HPBL,
m
3 august, tue
tue300:00+16ene3876100 0.0 999235
03:00+14ene51396100 5.3 994730
06:00+15ese41297100 0.5 990641
09:00+17sse51198100 1.8 987741
12:00+15ssw71496100 1.7 987913
15:00+15sw7149099 1.8 9931129
18:00+16sw6148132 0.3 9951235
21:00+14sw6128194 0.4 9971244
4 august, wed
wed400:00+11wsw51188100 0.3 999953
03:00+11wsw61189100 0.6 10011015
06:00+11wsw6117897 0.1 10031005
09:00+14wsw614571 0.1 10041479
12:00+18w712426 0.0 10062133
15:00+18wnw712426 0.0 10082306
18:00+15nw495191 0.0 10121361
21:00+11wsw116836 0.0 101312
5 august, thu
thu500:00+9sw22785 0.0 101443
03:00+8wsw118023 0.0 101615
06:00+11w0069100 0.0 101626
09:00+14n1159100 0.0 1017251
12:00+18nne114593 0.0 1018946
15:00+17ssw434998 0.0 10181051
18:00+17sse234785 0.0 1018631
21:00+13ssw1169100 0.0 101910
6 august, fri
fri600:00+11se117524 0.0 101910
03:00+10ene117643 0.0 102010
06:00+12ene1171100 0.0 102030
09:00+16e245676 0.0 1021427
12:00+20ene333882 0.0 10202520
15:00+19ene343678 0.0 10201635
18:00+19ene453990 0.0 10211300
21:00+15e28586 0.0 1021278
7 august, sat
sat700:00+11ene227524 0.0 102320
03:00+9ene23845 0.0 102359
06:00+11ene27770 0.0 1024222
09:00+16e48490 0.0 1024815
12:00+19ene56355 0.0 10231918
15:00+21e47315 0.0 10232198
18:00+20e48355 0.0 10222207
21:00+14e2856100 0.0 1023158